This demonstration page uses our WeatherBlox Daily Observations layout. Learn more.

Left ArrowRight Arrow

39.95238, -75.16362

Hourly Observations for August 8, 2016

Temp ( °F °C ) Dew Point ( °F °C ) Humidity (%) Winds ( mph kmh ) Pressure ( in mb ) Visibility ( mi km ) Precip ( " mm )
12:54 am 00:54 Mostly Cloudy 77 25 64 17.8 64 64 SW 5 7 29.96 1015 10 16 0.00 0.00
1:54 am 01:54 Cloudy 76 24.4 62 16.7 62 62 N 3 6 29.96 1015 10 16 0.00 0.00
2:54 am 02:54 Mostly Cloudy 76 24.4 63 17.2 64 64 SW 3 6 29.98 1015 10 16 0.00 0.00
3:54 am 03:54 Cloudy 76 24.4 68 20 77 77 Calm 29.99 1016 10 16 0.00 0.00
4:54 am 04:54 Mostly Cloudy 76 24.4 62 16.7 62 62 Calm 30.00 1016 10 16 0.00 0.00
5:54 am 05:54 Mostly Cloudy 75 23.9 62 16.7 64 64 NNE 5 7 30.01 1016 10 16 0.00 0.00
6:54 am 06:54 Mostly Cloudy 73 22.8 64 17.8 74 74 ENE 3 6 30.02 1017 10 16 0.00 0.00
7:54 am 07:54 Mostly Cloudy 76 24.4 62 16.7 62 62 NE 7 11 30.03 1017 10 16 0.00 0.00
8:54 am 08:54 Mostly Cloudy 78 25.6 60 15.6 54 54 NE 6 9 30.04 1017 10 16 0.00 0.00
9:54 am 09:54 Mostly Cloudy 81 27.2 61 16.1 51 51 E 8 13 30.05 1018 10 16 0.00 0.00
10:54 am 10:54 Mostly Cloudy 81 27.2 62 16.7 53 53 ENE 8 13 30.06 1018 10 16 0.00 0.00
11:54 am 11:54 Mostly Cloudy 83 28.3 63 17.2 51 51 ENE 8 13 30.06 1018 10 16 0.00 0.00
12:54 pm 12:54 Mostly Cloudy 83 28.3 63 17.2 51 51 ENE 6 9 30.05 1018 10 16 0.00 0.00
1:54 pm 13:54 Cloudy 84 28.9 63 17.2 49 49 ESE 6 9 30.05 1018 10 16 0.00 0.00
2:54 pm 14:54 Cloudy 83 28.3 65 18.3 55 55 NE 7 11 30.05 1018 10 16 0.00 0.00
3:54 pm 15:54 Cloudy 84 28.9 66 18.9 55 55 E 7 11 30.05 1018 10 16 0.00 0.00
4:54 pm 16:54 Mostly Cloudy 83 28.3 68 20 61 61 ENE 6 9 30.04 1017 10 16 0.00 0.00
5:54 pm 17:54 Mostly Cloudy 83 28.3 68 20 61 61 ESE 8 13 30.04 1017 10 16 0.00 0.00
6:54 pm 18:54 Mostly Cloudy 81 27.2 68 20 65 65 SE 8 13 30.04 1017 10 16 0.00 0.00
7:54 pm 19:54 Partly Cloudy 79 26.1 68 20 69 69 SE 7 11 30.05 1018 10 16 0.00 0.00
8:54 pm 20:54 Partly Cloudy 77 25 69 20.6 77 77 SE 5 7 30.07 1018 10 16 0.00 0.00
9:54 pm 21:54 Clear 76 24.4 69 20.6 79 79 E 5 7 30.10 1019 10 16 0.00 0.00
10:54 pm 22:54 Clear 75 23.9 69 20.6 82 82 SE 3 6 30.11 1020 10 16 0.00 0.00
11:54 pm 23:54 Clear 74 23.3 68 20 82 82 Calm 30.14 1021 10 16 0.00 0.00

Powered by AerisWeather